CW9414 Weather Reports


time (UTC)temp
F
wind
direction
speed
knots
gust
knots
rain 1hr
in
rain 24hr
in
rain mn
in
humidity
%
barometer
mb
20260506141412 78 150 1.7 1.7 0.00 0.00 0.00 92 1005.5
20260506140409 77 150 1.7 4.3 0.00 0.00 0.00 92 1005.5
20260506135409 77 150 0.0 2.6 0.00 0.00 0.00 92 1005.5
20260506134409 77 150 0.0 2.6 0.00 0.00 0.00 93 1005.5
20260506133408 77 150 0.0 1.7 0.00 0.00 0.00 93 1005.5
20260506132410 76 150 0.9 0.9 0.00 0.00 0.00 93 1005.6
20260506131409 76 150 0.0 0.9 0.00 0.00 0.00 92 1005.6
20260506130413 76 150 0.0 1.7 0.00 0.00 0.00 92 1005.6
20260506125409 76 150 0.0 1.7 0.00 0.00 0.00 92 1005.6
20260506124408 76 150 1.7 1.7 0.00 0.00 0.00 92 1005.5
20260506123409 75 150 0.0 0.0 0.00 0.00 0.00 92 1005.5
20260506122412 75 150 0.0 1.7 0.00 0.00 0.00 92 1005.4
20260506121409 75 150 0.0 1.7 0.00 0.00 0.00 92 1005.2
20260506120409 75 150 0.0 1.7 0.00 0.00 0.00 91 1005.2
20260506115409 75 150 0.0 0.0 0.00 0.00 0.00 91 1005.0
20260506114409 75 150 0.0 0.9 0.00 0.00 0.00 91 1004.9
20260506113408 75 150 0.0 1.7 0.00 0.00 0.00 91 1004.9
20260506112409 75 150 1.7 1.7 0.00 0.00 0.00 91 1004.7
20260506111408 75 150 0.0 1.7 0.00 0.00 0.00 90 1004.5
20260506110408 75 150 0.0 4.3 0.00 0.00 0.00 90 1004.5
20260506105409 75 150 0.0 2.6 0.00 0.00 0.00 90 1004.4
20260506104409 75 150 0.0 0.0 0.00 0.00 0.00 89 1004.5
20260506103408 75 150 0.0 1.7 0.00 0.00 0.00 89 1004.5
20260506102409 75 150 0.0 0.0 0.00 0.00 0.00 89 1004.5
20260506101412 75 150 0.0 0.0 0.00 0.00 0.00 89 1004.5
20260506100412 76 150 0.0 2.6 0.00 0.00 0.00 89 1004.5
20260506095408 76 150 2.6 4.3 0.00 0.00 0.00 89 1004.2
20260506094409 76 150 0.0 3.5 0.00 0.00 0.00 88 1004.1
20260506093408 76 150 0.0 3.5 0.00 0.00 0.00 88 1004.1
20260506092408 76 150 0.9 4.3 0.00 0.00 0.00 88 1004.1
20260506091408 76 150 3.5 5.2 0.00 0.00 0.00 88 1004.4
20260506090408 77 150 2.6 3.5 0.00 0.00 0.00 88 1004.4
20260506085409 77 150 0.0 3.5 0.00 0.00 0.00 88 1004.5
20260506084408 77 150 2.6 5.2 0.00 0.00 0.00 88 1004.5
20260506083408 77 150 1.7 3.5 0.00 0.00 0.00 87 1004.5
20260506082408 77 150 0.9 4.3 0.00 0.00 0.00 87 1004.6
20260506081411 77 150 2.6 3.5 0.00 0.00 0.00 87 1004.6
20260506080408 77 150 0.9 4.3 0.00 0.00 0.00 87 1004.6
20260506073409 77 155 1.7 4.3 0.00 0.00 0.00 87 1005.0
20260506072409 77 155 1.7 5.2 0.00 0.00 0.00 87 1005.0
20260506071408 77 156 2.6 3.5 0.00 0.00 0.00 87 1005.1
20260506070412 77 156 0.0 2.6 0.00 0.00 0.00 87 1005.1
20260506062408 77 155 0.0 2.6 0.00 0.00 0.00 86 1005.5
20260506061409 77 155 0.0 3.5 0.00 0.00 0.00 86 1005.5
20260506060412 77 155 0.0 4.3 0.00 0.00 0.00 86 1005.5
20260506051408 77 155 0.0 3.5 0.00 0.00 0.00 85 1005.3
20260506050408 78 155 0.0 3.5 0.00 0.00 0.00 84 1005.3
20260506044408 78 155 0.0 2.6 0.00 0.00 0.00 83 1005.5
20260506043408 78 155 0.9 1.7 0.00 0.00 0.00 83 1005.5
20260506042408 78 155 0.0 3.5 0.00 0.00 0.00 83 1005.1
20260506041408 78 155 0.0 6.1 0.00 0.00 0.00 82 1005.3
20260506040412 78 164 1.7 3.5 0.00 0.00 0.00 82 1005.3
20260506035412 78 170 0.0 2.6 0.00 0.00 0.00 82 1005.1
20260506034408 78 168 0.9 4.3 0.00 0.00 0.00 81 1004.8
20260506033408 78 170 0.0 3.5 0.00 0.00 0.00 81 1004.8
20260506032408 78 142 2.6 6.1 0.00 0.00 0.00 81 1004.6
20260506031408 79 161 2.6 4.3 0.00 0.00 0.00 81 1004.6
20260506030408 79 165 0.9 4.3 0.00 0.00 0.00 80 1004.6
20260506025412 79 167 2.6 5.2 0.00 0.00 0.00 80 1004.5
20260506024411 79 196 0.0 4.3 0.00 0.00 0.00 79 1004.2
20260506023408 79 170 2.6 4.3 0.00 0.00 0.00 79 1004.2
20260506022409 79 155 0.9 4.3 0.00 0.00 0.00 79 1004.0
20260506021408 79 166 0.9 3.5 0.00 0.00 0.00 78 1003.9
20260506020408 79 183 0.9 2.6 0.00 0.00 0.00 77 1003.9
20260506015408 79 192 0.9 4.3 0.00 0.00 0.00 77 1003.6
20260506014411 80 188 0.9 3.5 0.00 0.00 0.00 76 1003.5
20260506013411 80 159 3.5 3.5 0.00 0.00 0.00 75 1003.5
20260506012408 80 161 0.9 4.3 0.00 0.00 0.00 75 1003.0
20260506011408 80 178 0.0 6.1 0.00 0.00 0.00 74 1003.0
20260506010411 80 139 0.0 7.8 0.00 0.00 0.00 74 1003.0
20260506005408 80 209 0.9 4.3 0.00 0.00 0.00 73 1003.0
20260506004408 81 210 2.6 3.5 0.00 0.00 0.00 72 1002.7
20260506003408 81 150 1.7 7.0 0.00 0.00 0.00 72 1002.8
20260506002408 81 153 1.7 6.1 0.00 0.00 0.00 71 1002.8
20260506001409 81 190 5.2 5.2 0.00 0.00 0.00 72 1002.9
20260506000408 81 148 7.0 7.0 0.00 0.00 0.00 71 1002.9
20260505235408 82 192 1.7 7.0 0.00 0.00 0.00 71 1002.6
20260505234408 82 197 2.6 4.3 0.00 0.00 0.00 71 1002.6
20260505233411 82 148 1.7 5.2 0.00 0.00 0.00 71 1002.6
20260505232408 82 138 6.1 8.7 0.00 0.00 0.00 70 1002.7
20260505231408 82 153 2.6 5.2 0.00 0.00 0.00 70 1002.7
20260505230408 83 142 0.9 5.2 0.00 0.00 0.00 71 1002.7
20260505225408 83 126 2.6 6.1 0.00 0.00 0.00 71 1002.7
20260505224408 83 153 0.0 6.1 0.00 0.00 0.00 70 1002.8
20260505223408 83 203 1.7 7.0 0.00 0.00 0.00 69 1002.8
20260505222411 84 174 2.6 6.1 0.00 0.00 0.00 69 1002.9
20260505221411 84 163 4.3 8.7 0.00 0.00 0.00 68 1002.9
20260505220411 84 173 1.7 7.0 0.00 0.00 0.00 67 1002.9
20260505215408 84 145 0.9 7.0 0.00 0.00 0.00 67 1003.1
20260505214409 85 167 1.7 4.3 0.00 0.00 0.00 67 1003.3
20260505213411 85 203 2.6 8.7 0.00 0.00 0.00 67 1003.3
20260505212408 84 185 2.6 7.8 0.00 0.00 0.00 67 1003.5
20260505211407 84 209 2.6 7.0 0.00 0.00 0.00 68 1003.6
20260505210408 84 141 3.5 9.6 0.00 0.00 0.00 68 1003.6
20260505205407 84 153 2.6 8.7 0.00 0.00 0.00 68 1004.0
20260505204407 84 205 1.7 7.8 0.00 0.00 0.00 68 1004.1
20260505203408 84 185 4.3 10.4 0.00 0.00 0.00 68 1004.1
20260505202407 84 174 1.7 8.7 0.00 0.00 0.00 68 1004.3
20260505201408 84 170 3.5 9.6 0.00 0.00 0.00 68 1004.5
20260505200407 84 182 1.7 6.1 0.00 0.00 0.00 69 1004.5
20260505195407 84 127 0.9 6.1 0.00 0.00 0.00 69 1004.6
20260505194407 83 170 0.9 4.3 0.00 0.00 0.00 71 1004.7
20260505193411 83 169 0.0 4.3 0.00 0.00 0.00 72 1004.7
20260505192407 82 144 1.7 5.2 0.00 0.00 0.00 72 1005.0
20260505191407 82 157 1.7 8.7 0.00 0.00 0.00 72 1004.9
20260505190407 82 138 0.9 7.0 0.00 0.00 0.00 72 1004.9
20260505185407 83 169 1.7 7.8 0.00 0.00 0.00 72 1005.1
20260505184408 82 159 5.2 10.4 0.00 0.00 0.00 73 1005.1
20260505183408 82 139 3.5 7.8 0.00 0.00 0.00 73 1005.1
20260505182407 81 186 3.5 5.2 0.00 0.00 0.00 74 1005.2
20260505181410 81 229 4.3 5.2 0.00 0.00 0.00 75 1005.4
20260505180408 81 155 0.0 9.6 0.00 0.00 0.00 75 1005.4
20260505175408 81 126 1.7 4.3 0.00 0.00 0.00 76 1005.6
20260505174407 81 139 6.1 6.1 0.00 0.00 0.00 76 1005.6
20260505173407 80 196 1.7 7.0 0.00 0.00 0.00 76 1005.6
20260505172408 80 184 3.5 7.8 0.00 0.00 0.00 76 1005.5
20260505171407 80 136 1.7 7.8 0.00 0.00 0.00 77 1005.6
20260505170408 80 142 3.5 7.8 0.00 0.00 0.00 77 1005.6
20260505165407 79 184 2.6 8.7 0.00 0.00 0.00 79 1005.6
20260505164407 79 142 2.6 7.0 0.00 0.00 0.00 81 1005.6
20260505163407 79 126 0.0 5.2 0.00 0.00 0.00 82 1005.6
20260505162407 78 178 0.9 5.2 0.00 0.00 0.00 82 1005.6
20260505161407 78 148 0.9 7.0 0.00 0.00 0.00 82 1005.6
20260505160407 78 136 0.9 4.3 0.00 0.00 0.00 82 1005.6
20260505152407 77 161 2.6 6.1 0.00 0.00 0.00 84 1005.3
20260505151411 76 195 0.9 4.3 0.00 0.00 0.00 85 1005.3
20260505150407 76 195 3.5 4.3 0.00 0.00 0.00 86 1005.3